Location: *
(39.6167°S, 171.5333°W)
Time: 18:18:27
(UTC+00:00)

Okean-O - Pass Details

Date: 13 May 2021
Orbit: 638 x 641 km, 98.2° (Epoch: 19 June)

Event Time Altitude Azimuth Distance (km) Brightness Sun altitude
Rises 17:46:53 0° 35° (NE) 2,938 7.0 -7.2°
Reaches altitude 10° 17:49:12 10° 42° (NE) 2,037 6.3 -6.8°
Maximum altitude 17:53:17 37° 109° (ESE) 1,008 4.2 -6.0°
Drops below altitude 10° 17:57:25 10° 176° (S) 2,063 5.1 -5.3°
Sets 17:59:45 0° 184° (S) 2,981 5.8 -4.9°
